TimeEST,TemperatureF,Dew PointF,Humidity,Sea Level PressureIn,VisibilityMPH,Wind Direction,Wind SpeedMPH,Gust SpeedMPH,PrecipitationIn,Events,Conditions,WindDirDegrees,DateUTC
12:15 AM,41.0,10.4,29,30.05,10.0,WNW,5.8,-,N/A,,Clear,300,2013-01-21 05:15:00
12:35 AM,42.8,10.4,27,30.04,10.0,WNW,8.1,-,N/A,,Clear,290,2013-01-21 05:35:00
12:55 AM,42.8,10.4,27,30.04,10.0,WNW,6.9,-,N/A,,Clear,300,2013-01-21 05:55:00
1:15 AM,41.0,10.4,29,30.04,10.0,NW,3.5,-,N/A,,Clear,310,2013-01-21 06:15:00
1:35 AM,35.6,14.0,41,30.05,10.0,Calm,Calm,-,N/A,,Clear,0,2013-01-21 06:35:00
1:55 AM,33.8,15.8,48,30.06,10.0,Calm,Calm,-,N/A,,Clear,0,2013-01-21 06:55:00
2:15 AM,32.0,15.8,51,30.06,10.0,Calm,Calm,-,N/A,,Clear,0,2013-01-21 07:15:00
2:35 AM,32.0,12.2,44,30.07,10.0,West,4.6,-,N/A,,Clear,280,2013-01-21 07:35:00
2:55 AM,32.0,14.0,48,30.07,10.0,Calm,Calm,-,N/A,,Clear,0,2013-01-21 07:55:00
3:15 AM,33.8,15.8,48,30.07,10.0,ESE,8.1,-,N/A,,Clear,120,2013-01-21 08:15:00
3:35 AM,33.8,14.0,44,30.07,10.0,ESE,3.5,-,N/A,,Clear,110,2013-01-21 08:35:00
3:55 AM,32.0,15.8,51,30.06,10.0,ESE,5.8,-,N/A,,Clear,110,2013-01-21 08:55:00
4:15 AM,30.2,15.8,55,30.06,10.0,ESE,4.6,-,N/A,,Clear,110,2013-01-21 09:15:00
4:35 AM,32.0,15.8,51,30.05,10.0,East,4.6,-,N/A,,Clear,100,2013-01-21 09:35:00
4:55 AM,30.2,15.8,55,30.05,10.0,ESE,3.5,-,N/A,,Clear,120,2013-01-21 09:55:00
5:15 AM,30.2,15.8,55,30.05,10.0,Calm,Calm,-,N/A,,Clear,0,2013-01-21 10:15:00
5:35 AM,28.4,15.8,59,30.05,10.0,Calm,Calm,-,N/A,,Clear,0,2013-01-21 10:35:00
5:55 AM,28.4,15.8,59,30.06,10.0,Calm,Calm,-,N/A,,Clear,0,2013-01-21 10:55:00
6:15 AM,26.6,15.8,64,30.05,10.0,Calm,Calm,-,N/A,,Clear,0,2013-01-21 11:15:00
6:35 AM,26.6,15.8,64,30.06,10.0,Calm,Calm,-,N/A,,Clear,0,2013-01-21 11:35:00
6:55 AM,26.6,15.8,64,30.06,10.0,Calm,Calm,-,N/A,,Clear,0,2013-01-21 11:55:00
7:15 AM,26.6,15.8,64,30.06,10.0,Calm,Calm,-,N/A,,Clear,0,2013-01-21 12:15:00
7:35 AM,24.8,15.8,69,30.06,10.0,Calm,Calm,-,N/A,,Clear,0,2013-01-21 12:35:00
7:55 AM,26.6,15.8,64,30.06,10.0,Calm,Calm,-,N/A,,Clear,0,2013-01-21 12:55:00
8:15 AM,26.6,19.4,74,30.06,10.0,Calm,Calm,-,N/A,,Clear,0,2013-01-21 13:15:00
8:35 AM,32.0,21.2,64,30.05,10.0,Calm,Calm,-,N/A,,Clear,0,2013-01-21 13:35:00
8:55 AM,35.6,17.6,48,30.05,10.0,Calm,Calm,-,N/A,,Clear,0,2013-01-21 13:55:00
9:15 AM,35.6,17.6,48,30.05,10.0,ESE,4.6,-,N/A,,Clear,110,2013-01-21 14:15:00
9:35 AM,37.4,19.4,48,30.05,10.0,SE,5.8,-,N/A,,Clear,140,2013-01-21 14:35:00
9:55 AM,39.2,19.4,45,30.05,10.0,ESE,4.6,-,N/A,,Clear,110,2013-01-21 14:55:00
10:15 AM,41.0,19.4,42,30.04,10.0,SSE,3.5,-,N/A,,Clear,150,2013-01-21 15:15:00
10:35 AM,42.8,19.4,39,30.04,10.0,Calm,Calm,-,N/A,,Clear,0,2013-01-21 15:35:00
10:55 AM,42.8,19.4,39,30.02,10.0,SSW,5.8,-,N/A,,Clear,200,2013-01-21 15:55:00
11:15 AM,42.8,19.4,39,30.01,10.0,SSE,4.6,-,N/A,,Clear,160,2013-01-21 16:15:00
11:35 AM,44.6,19.4,37,29.99,10.0,SSE,8.1,-,N/A,,Clear,150,2013-01-21 16:35:00
11:55 AM,46.4,19.4,34,29.97,10.0,SSE,9.2,-,N/A,,Clear,160,2013-01-21 16:55:00
12:15 PM,46.4,21.2,37,29.95,10.0,SSW,6.9,-,N/A,,Clear,210,2013-01-21 17:15:00
12:35 PM,48.2,21.2,34,29.92,10.0,SSW,9.2,-,N/A,,Clear,210,2013-01-21 17:35:00
12:55 PM,48.2,21.2,34,29.90,10.0,South,9.2,-,N/A,,Clear,180,2013-01-21 17:55:00
1:15 PM,48.2,19.4,32,29.90,10.0,SSW,9.2,16.1,N/A,,Clear,210,2013-01-21 18:15:00
1:35 PM,50.0,21.2,32,29.87,10.0,SW,6.9,-,N/A,,Clear,230,2013-01-21 18:35:00
1:55 PM,51.8,21.2,30,29.85,10.0,SW,5.8,19.6,N/A,,Clear,230,2013-01-21 18:55:00
2:15 PM,51.8,21.2,30,29.83,10.0,SSW,9.2,-,N/A,,Clear,210,2013-01-21 19:15:00
2:35 PM,53.6,23.0,30,29.82,10.0,SSW,6.9,16.1,N/A,,Clear,210,2013-01-21 19:35:00
2:55 PM,53.6,23.0,30,29.81,10.0,SSW,12.7,18.4,N/A,,Clear,210,2013-01-21 19:55:00
3:15 PM,53.6,24.8,33,29.79,10.0,SW,8.1,-,N/A,,Clear,220,2013-01-21 20:15:00
3:35 PM,53.6,24.8,33,29.77,10.0,SW,9.2,20.7,N/A,,Clear,230,2013-01-21 20:35:00
3:55 PM,53.6,24.8,33,29.77,10.0,SSW,8.1,-,N/A,,Clear,200,2013-01-21 20:55:00
4:15 PM,53.6,24.8,33,29.77,10.0,SSW,5.8,18.4,N/A,,Scattered Clouds,210,2013-01-21 21:15:00
4:35 PM,53.6,24.8,33,29.77,10.0,SSW,6.9,-,N/A,,Scattered Clouds,210,2013-01-21 21:35:00
4:55 PM,51.8,24.8,35,29.76,10.0,SW,5.8,17.3,N/A,,Clear,220,2013-01-21 21:55:00
5:15 PM,51.8,24.8,35,29.77,10.0,SW,4.6,-,N/A,,Clear,230,2013-01-21 22:15:00
5:35 PM,50.0,24.8,37,29.78,10.0,WSW,4.6,-,N/A,,Scattered Clouds,250,2013-01-21 22:35:00
5:55 PM,48.2,26.6,43,29.79,10.0,WNW,5.8,-,N/A,,Scattered Clouds,290,2013-01-21 22:55:00
6:15 PM,48.2,17.6,30,29.80,10.0,West,15.0,21.9,N/A,,Scattered Clouds,280,2013-01-21 23:15:00
6:35 PM,48.2,15.8,27,29.81,10.0,West,17.3,25.3,N/A,,Clear,280,2013-01-21 23:35:00
6:55 PM,46.4,14.0,27,29.82,10.0,West,16.1,24.2,N/A,,Clear,280,2013-01-21 23:55:00
7:15 PM,46.4,12.2,25,29.82,10.0,West,15.0,21.9,N/A,,Clear,280,2013-01-22 00:15:00
7:35 PM,44.6,12.2,27,29.83,10.0,WNW,16.1,21.9,N/A,,Clear,290,2013-01-22 00:35:00
7:55 PM,44.6,10.4,25,29.83,10.0,WNW,17.3,29.9,N/A,,Clear,290,2013-01-22 00:55:00
8:15 PM,44.6,10.4,25,29.84,10.0,West,18.4,23.0,N/A,,Clear,280,2013-01-22 01:15:00
8:35 PM,42.8,10.4,27,29.85,10.0,WNW,11.5,18.4,N/A,,Clear,300,2013-01-22 01:35:00
8:55 PM,42.8,8.6,25,29.85,10.0,WNW,16.1,21.9,N/A,,Clear,290,2013-01-22 01:55:00
9:15 PM,41.0,6.8,24,29.86,10.0,WNW,17.3,21.9,N/A,,Clear,290,2013-01-22 02:15:00
9:35 PM,41.0,6.8,24,29.87,10.0,WNW,13.8,25.3,N/A,,Clear,290,2013-01-22 02:35:00
9:55 PM,39.2,6.8,26,29.88,10.0,West,10.4,20.7,N/A,,Clear,280,2013-01-22 02:55:00
10:15 PM,39.2,6.8,26,29.88,10.0,West,9.2,20.7,N/A,,Clear,270,2013-01-22 03:15:00
10:35 PM,37.4,6.8,28,29.90,10.0,West,10.4,16.1,N/A,,Clear,280,2013-01-22 03:35:00
10:55 PM,37.4,6.8,28,29.90,10.0,WNW,9.2,-,N/A,,Clear,290,2013-01-22 03:55:00
11:15 PM,35.6,6.8,30,29.90,10.0,WNW,12.7,18.4,N/A,,Clear,300,2013-01-22 04:15:00
11:35 PM,35.6,8.6,33,29.91,10.0,WNW,11.5,18.4,N/A,,Clear,290,2013-01-22 04:35:00
11:55 PM,33.8,6.8,32,29.91,10.0,West,11.5,-,N/A,,Clear,280,2013-01-22 04:55:00